Покателло

США     42°52′23″N   112°27′00″W
темп.,
°C
ветер,
м/с
пор.,
м/с
влажн.,
%
обл.,
%
осадки,
мм/ч
давл.,
гПа
погр.,
м
19 апреля, пн
пн1900:00+7ююз344689 0.0 101543
03:00+5ю335211 0.0 101530
06:00+4ююз33565 0.0 101433
09:00+8з612475 0.0 1012801
12:00+9ссз91152100 0.1 10111622
15:00+3ссв813575 2.7 10181273
18:00+5с1015404 2.7 10181511
21:000св714460 0.0 1023636
20 апреля, вт
вт2000:00−3св34530 0.0 102783
03:00−4ссв11550 0.0 102710
06:00−4вюв11560 0.0 102610
09:000в11380 0.0 1025453
12:00+4ссв22290 0.0 10211251
15:00+7с43310 0.0 10171695
18:00+7с44295 0.0 10161429
21:00+2св22420 0.0 101811
21 апреля, ср
ср2100:00+1вюв11440 0.0 101810
03:00−1всв11490 0.0 101810
06:00−1вюв22530 0.0 101811
09:00+3в22430 0.0 1017384
12:00+9св44320 0.0 10131393
15:00+11ссв44270 0.0 10102057
18:00+11с54291 0.0 10091461
21:00+5ссв12370 0.0 101010
22 апреля, чт
чт2200:00+4ююв21380 0.0 101010
03:00+2ююз22422 0.0 101110
06:00+2ю22400 0.0 101114
09:00+7юз24445 0.0 1009610
12:00+11з89365 0.0 10082058
15:00+13з81031100 0.0 10062708
18:00+12зюз89331 0.0 10041938
21:00+7ююз44485 0.0 100534
23 апреля, пт
пт2300:00+4ю587256 0.3 1007145
03:00+3ю468483 1.6 100792
06:00+2юз22770 1.9 100820
09:00+5з49595 0.0 1010704
12:00+9з44465 0.0 10091274
15:00+12з663635 0.0 10072327
18:00+12зюз883732 0.0 10071909
21:00+7зюз512445 0.0 1010317